map of PRC home
Great Circle Mapper logo
PRC - Airport
Location
City:  Prescott, Arizona, United States
Name:Ernest A. Love Field
ICAO / IATA:KPRC / PRC
FAA:PRC

Details
Type:Airport (Part 139 Class I)
Use:Public/Civil
Latitude:3439'17"N (34.654833)
Longitude:11225'09"W (-112.419221)
Datum:WGS 1984
Elevation:5044 ft (1537 m)
Runways:3
Longest:7619 × 150 ft (2322 × 45.5 m), paved

Time
Time Zone:UTC-7
Local Time:

Weather
METAR:KPRC 251753Z 19012G17KT 10SM SCT080 24/08 A3026 RMK AO2 SLP181 T02390083 10239 20089 50002
TAF:KPRC 251727Z 2518/2618 20008KT P6SM SCT060
FM251900 20012G20KT P6SM SCT060 SCT250
FM260100 19007KT P6SM FEW070 SCT250

Related Locations
Nearby:
Farthest:RRG: 11373 mi / 18303 km
Plaine Corail, Rodrigues Island, MU

Find:

   beyond  
but within

Other Information
Maps:
Delays:
NOTAMs:
Links:
Sources:

  
flag of United States
flag of Arizona
  

Airport Diagram

Airport diagram for PRC

Airport diagram PDF

Sectional Chart

Flight Planning
at skyvector.com

Satellite Image

Google Maps Satellite View

 

Copyright © 2004-2014 Karl L. Swartz. All rights reserved.
The Great Circle Mapper name and logo are trademarks of the Great Circle Mapper.
All other trademarks mentioned herein belong to their respective owners.
Please see credits for attibutions and further copyright information.

  Follow gcmap on Facebook Follow gcmap on Twitter

hCard Microformat

Geo Microformat